Location: Kikino
(54.4440°N, 112.0940°W)
Time: 16:23:41
(UTC+00:00)

S-56A Canister/Altair - Pass Details

Date: 27 May 2024
Orbit: 637 x 2489 km, 38.9° (Epoch: 17 June)

Event Time Altitude Azimuth Distance (km) Brightness Sun altitude
Rises 10:09:06 0° 188° (S) 6,150 11.6 -6.4°
Reaches altitude 10° 10:15:47 10° 169° (S) 5,047 11.3 -5.8°
Maximum altitude 10:22:31 15° 141° (SE) 4,403 11.3 -5.2°
Drops below altitude 10° 10:28:38 10° 112° (ESE) 4,512 11.7 -4.6°
Sets 10:33:54 0° 92° (E) 5,163 12.4 -4.1°
